Regional Weather Roundup
Issued by NWS

Home | Current Version | Previous Version | Graphics & Text | Print | Product List | Glossary On
Versions: 1 2 3 4 5 6 7 8 9 10 11 12 13 14 15 16 17 18 19 20 21 22 23 24 25 26 27 28 29 30 31 32 33 34 35 36 37 38 39 40 41 42 43 44 45 46 47 48 49 50
581
ASUS43 KMKX 161800
RWRWI

WISCONSIN REGIONAL WEATHER ROUNDUP
NATIONAL WEATHER SERVICE MILWAUKEE/SULLIVAN WI
1200 PM CST MON JAN 16 2017

NOTE: "FAIR" INDICATES FEW OR NO CLOUDS BELOW 12,000 FEET WITH NO
SIGNIFICANT WEATHER AND/OR OBSTRUCTIONS TO VISIBILITY.

WIZ001-002-006>008-014>016-023>028-161900-
NORTHWEST WISCONSIN

CITY           SKY/WX    TMP DP  RH WIND       PRES   REMARKS
SUPERIOR ARPT  CLOUDY    27  18  69 W3        30.14F
ASHLAND        CLOUDY    30  19  63 SW9       30.14F WCI  22
6HR MIN TEMP:  18; 6HR MAX TEMP:  30;

HAYWARD        CLOUDY    30  17  58 SW7       30.14F WCI  23
6HR MIN TEMP:  -2; 6HR MAX TEMP:  30;

SIREN          CLOUDY    27  18  68 CALM      30.15F
CUMBERLAND     CLOUDY    14  10  85 CALM      30.15F FOG
RICE LAKE      CLOUDY    16  12  85 CALM      30.18F
CHETEK         CLOUDY    17  14  86 CALM      30.16F
LADYSMITH      CLOUDY    19  17  90 E3        30.18F
EAU CLAIRE     NOT AVBL
MENOMONIE      CLOUDY    17  15  92 CALM      30.17F FOG
NEW RICHMOND   CLOUDY    22  16  77 NE3       30.14F
OSCEOLA        CLOUDY    23  16  74 CALM      30.18F
$$

WIZ003>005-009-010-017-018-161900-
NORTH CENTRAL WISCONSIN

CITY           SKY/WX    TMP DP  RH WIND       PRES   REMARKS
MANITOWISH WTR CLOUDY    23  16  73 S3        30.13F
ARBOR VITAE    CLOUDY    25  16  69 CALM      30.13F
WOODRUFF       CLOUDY    25  16  69 CALM      30.13F
RHINELANDER    CLOUDY    21  17  84 CALM      30.14F
6HR MIN TEMP:   6; 6HR MAX TEMP:  21;

EAGLE RIVER    CLOUDY    25  14  64 CALM      30.13F
LAND O LAKES   CLOUDY    28  17  62 CALM      30.14F
PHILLIPS       CLOUDY    21  18  88 CALM      30.14F
TOMAHAWK       CLOUDY    22  15  74 CALM      30.16F
MEDFORD        CLOUDY    21  15  75 E3        30.15F
MERRILL        CLOUDY    19  11  71 CALM        N/A
6HR MIN TEMP:  -6; 6HR MAX TEMP:  19;

$$

WIZ029-030-035-036-043>047-161900-
CENTRAL WISCONSIN

CITY           SKY/WX    TMP DP  RH WIND       PRES   REMARKS
WAUSAU         CLOUDY    19  11  70 CALM      30.16F HAZE
6HR MIN TEMP:   2; 6HR MAX TEMP:  19;

MOSINEE        CLOUDY    21  18  86 CALM      30.18F
MARSHFIELD     CLOUDY    21  13  71 E6        30.14F WCI  13
6HR MIN TEMP:   7; 6HR MAX TEMP:  21;

STEVENS POINT  CLOUDY    23  17  77 CALM      30.19F
WAUPACA        CLOUDY    28  18  66 CALM      30.21F
WAUTOMA        MIX PCPN  31  22  69 E3          N/A
6HR MIN TEMP:  14; 6HR MAX TEMP:  31;

WISC RAPIDS    CLOUDY    28  20  71 E3        30.17F
6HR MIN TEMP:  10; 6HR MAX TEMP:  28;

CAMP DOUGLAS   CLOUDY    30  23  74 E6        30.16F WCI  24
$$

WIZ011>013-019>022-031-037>040-048>050-161900-
NORTHEAST WISCONSIN

CITY           SKY/WX    TMP DP  RH WIND       PRES   REMARKS
ANTIGO         CLOUDY    16  12  84 CALM      30.17F
SHAWANO        MOSUNNY   26  15  62 CALM      30.22F
OCONTO         CLOUDY    25  15  66 CALM      30.23F
STURGEON BAY   CLOUDY    33  18  53 S3        30.23F
6HR MIN TEMP:  20; 6HR MAX TEMP:  33;

GREEN BAY      CLOUDY    29  22  75 CALM      30.22F
6HR MIN TEMP:  18; 6HR MAX TEMP:  30;

MANITOWOC      NOT AVBL
APPLETON       PTSUNNY   28  18  64 CALM      30.19F
CLINTONVILLE   CLOUDY    21  12  68 CALM      30.21F
OSHKOSH        MIX PCPN  31  22  69 E5        30.19F WCI  26
6HR MIN TEMP:  21; 6HR MAX TEMP:  32; 6HR PCP: TRACE;

$$

WIZ032>034-041-042-053>061-161900-
SOUTHWEST WISCONSIN

CITY           SKY/WX    TMP DP  RH WIND       PRES   REMARKS
LA CROSSE      CLOUDY    31  23  72 NW5       30.14F WCI  26
                                      6HR PCP:  0.01;

SPARTA         CLOUDY    31  25  77 E6        30.17F WCI  25
VIROQUA        CLOUDY    31  30  95 E9        30.10F WCI  23
6HR MIN TEMP:  26; 6HR MAX TEMP:  31;

BOSCOBEL       MIX PCPN  32  30  92 NE6       30.13F FOG     WCI  26
6HR MIN TEMP:  28; 6HR MAX TEMP:  32; 6HR PCP:  0.05;

PRAIRIE DU CHI MIX PCPN  32  31  94 E3        30.12F
PLATTEVILLE    CLOUDY    32  32 100 E9        30.12F WCI  24
$$

WIZ056-057-062-063-064-067-068-161900-
SOUTH CENTRAL WISCONSIN

CITY           SKY/WX    TMP DP  RH WIND       PRES   REMARKS
REEDSBURG      DRIZZLE   30  28  94 NE3       30.16F
BARABOO/DELLS  MIX PCPN  30  27  86 E3        30.16F
LONE ROCK      FRZ RAIN  32  28  85 E9        30.15F FOG     WCI  24
MINERAL POINT  LGT RAIN  34  34 100 E6        30.11F WCI  29
MADISON        FRZ RAIN  32  29  88 E7        30.15F FOG     WCI  26
6HR MIN TEMP:  27; 6HR MAX TEMP:  32; 6HR PCP:  0.09;

MIDDLETON      CLOUDY    32  32  99 E7        30.16F WCI  26
WATERTOWN      CLOUDY    32  32 100 E5        30.18F FOG     WCI  27
MONROE         MIX PCPN  32  32 100 E7        30.13F WCI  26
JANESVILLE     DRIZZLE   34  34 100 E6        30.15F WCI  29
$$

WIZ051-052-058>065-066-070>072-161900-
SOUTHEAST WISCONSIN

CITY           SKY/WX    TMP DP  RH WIND       PRES   REMARKS
MILWAUKEE      LGT RAIN  35  31  85 SE6       30.19F FOG     WCI  30
6HR MIN TEMP:  31; 6HR MAX TEMP:  35; 6HR PCP:  0.11;

WAUKESHA       CLOUDY    30  28  93 E7        30.19F FOG     WCI  23
MILWAUKEE/TIMM DRIZZLE   34  30  86 SE5       30.21F WCI  30
RACINE         LGT RAIN  34  30  85 SE7       30.20F WCI  28
6HR MIN TEMP:  28; 6HR MAX TEMP:  34; 6HR PCP:  0.09;

KENOSHA        CLOUDY    33  31  92 E7        30.18F FOG     WCI  27
6HR MIN TEMP:  29; 6HR MAX TEMP:  34;

FOND DU LAC    MIX PCPN  32  19  58 NE5       30.20F WCI  27
6HR MIN TEMP:  23; 6HR MAX TEMP:  32; 6HR PCP: TRACE;

SHEBOYGAN      MIX PCPN  32  20  61 S3        30.21F
6HR MIN TEMP:  19; 6HR MAX TEMP:  32; 6HR PCP: TRACE;

WEST BEND      CLOUDY    32  32 100 SE5       30.20F WCI  27
JUNEAU         CLOUDY    32  28  84 E7        30.20F WCI  26
$$

LSZ147-162-161900-
LAKE SUPERIOR

STATION/POSITION TIME  TEMP    WIND        PRES    WAVE
                       AIR SEA DIR/SP/G            HT/PER
                 (UTC) (F)     (DEG/KT/KT) (MB)    (FT/S)
DEVILS ISLAND    1700   28     240/ 14/ 18 1021.9F
PORT WING        1730   31     210/  4/  7 1021.0F
SAXON HARBOR     1730   34     200/  5/  8 1020.7F
$$

LMZ867-665-643>646-161900-
LAKE MICHIGAN

STATION/POSITION TIME  TEMP    WIND        PRES    WAVE
                       AIR SEA DIR/SP/G            HT/PER
                 (UTC) (F)     (DEG/KT/KT) (MB)    (FT/S)
NORTHPORT PIER   1740   31     170/  1/  6 1023.0F
SISTER BAY       1620             CALM       N/A
KEWAUNEE LAKESHO 1730   30      CALM  /  2 1023.5F
SHEBOYGAN LAKESH 1700   31      CALM  /  1 1024.6F
PORT WASHINGTON  1740   34     190/  1/  3 1024.0F
MILWAUKEE LAKESH 1730   32     150/  1/  1   N/A
KENOSHA   LAKESH 1700   33      CALM  /  2 1023.7
$$

TC  - TEMPERATURE IN CELSIUS
VSB - VISIBILITY IN STATUTE MILES
WCI - WIND CHILL INDEX
HX  - HEAT INDEX





USA.gov is the U.S. government's official web portal to all federal, state and local government web resources and services.